User: anonymous   Login
Location: Caltech
(34.1382°N, 118.1253°W)
Time: 21:50:33
(UTC-07:00)
Language:

Gurwin Techsat 1B - Orbit

View from above orbital plane
View from above orbital plane
View from above satellite
View from above satellite

Ground track
Ground track

The orbit data is extracted from the following two-line orbital elements,

1 25397U 98043D   18116.30397821 -.00000024 +00000-0 +86844-5 0  9992
2 25397 098.6462 057.6119 0001809 131.9636 228.1697 14.23644153028120
Epoch (UTC): 26 April 2018 07:17:43
Eccentricity: 0.0001809
inclination: 98.6462°
perigee height: 812 km
apogee height: 814 km
right ascension of ascending node: 57.6119°
argument of perigee: 131.9636°
revolutions per day: 14.23644153
mean anomaly at epoch: 228.1697°
orbit number at epoch: 2812

The dashed part of the orbit path shows where the satellite is in the earth's shadow,  

DLR